Weather History for Aberdeen, SD

Change the Weather History Date:

Friday, October 4, 2013

  Actual Average Record
Temperature  
Mean Temperature 44 °F 51 °F  
Max Temperature 49 °F 64 °F 93 °F (1975)
Min Temperature 39 °F 38 °F 13 °F (1894)
Degree Days  
Heating Degree Days 21 15  
Month to date heating degree days 55 56  
Since 1 July heating degree days 221 330  
Cooling Degree Days 0 0  
Month to date cooling degree days 0 0  
Year to date cooling degree days 580 523  
Moisture  
Dew Point 41 °F    
Average Humidity 87    
Maximum Humidity 96    
Minimum Humidity 77    
Precipitation  
Precipitation 0.71 in 0.07 in 2.98 in (1926)
Month to date precipitation 0.79 0.32  
Year to date precipitation 16.99 18.80  
Snow  
Snow 0.00 in - - ()
Month to date snowfall 0.0  
Since 1 July snowfall 0.0  
Snow Depth 0.00 in    
Sea Level Pressure  
Sea Level Pressure 29.95 in    
Wind  
Wind Speed 24 mph (NNE)    
Max Wind Speed 35 mph    
Max Gust Speed 47 mph    
Visibility 7 miles    
Events Rain , Thunderstorm    
T = Trace of Precipitation, MM = Missing Value Source: NWS Daily Summary

Daily Weather History Graph

Daily Weather History Graph

Search for Another Location

Airport:

Trip Planner

Search our weather history database for the weather conditions in past years. The results will help you decide how hot, cold, wet, or windy it might be!

Date:

Astronomy

Oct. 04, 2013 Rise Set
Actual Time 7:35 AM CDT 7:07 PM CDT
Civil Twilight 7:06 AM CDT 7:37 PM CDT
Nautical Twilight 6:32 AM CDT 8:11 PM CDT
Astronomical Twilight 5:57 AM CDT 8:45 PM CDT
Moon 7:13 AM CDT (10/4) 6:49 PM CDT (10/4)
Length of Visible Light 12h 30m
Length of Day
11h 31m
Waning Crescent, 0% of the Moon is Illuminated
Oct 4
Waning Crescent
Oct 4
New
Oct 11
First Quarter
Oct 18
Full
Oct 26
Last Quarter

Hourly Weather History & Observations

Time (CDT) Temp. Windchill Dew Point Humidity Pressure Visibility Wind Dir Wind Speed Gust Speed Precip Events Conditions
12:13 AM 50.0 °F - 42.8 °F 76% 30.03 in 10.0 mi NE 12.7 mph 26.5 mph N/A   Overcast
12:53 AM 48.9 °F - 42.1 °F 77% 30.04 in 10.0 mi NNE 18.4 mph 26.5 mph N/A   Overcast
1:03 AM 48.2 °F - 42.8 °F 82% 30.01 in 10.0 mi NNE 19.6 mph - N/A   Overcast
1:53 AM 48.0 °F - 41.0 °F 77% 30.00 in 10.0 mi NNE 19.6 mph 26.5 mph N/A   Clear
2:33 AM 48.2 °F - 41.0 °F 76% 29.99 in 10.0 mi NNE 19.6 mph 25.3 mph N/A   Mostly Cloudy
2:53 AM 48.0 °F - 41.0 °F 77% 30.02 in 10.0 mi NE 16.1 mph 26.5 mph N/A   Overcast
3:53 AM 48.0 °F - 42.1 °F 80% 30.00 in 10.0 mi NNE 21.9 mph 28.8 mph N/A   Overcast
4:53 AM 46.9 °F - 42.1 °F 83% 30.02 in 10.0 mi NNE 15.0 mph - N/A   Overcast
5:27 AM 46.4 °F 38.7 °F 42.8 °F 87% 29.99 in 10.0 mi NNE 20.7 mph 27.6 mph N/A   Overcast
5:53 AM 46.0 °F 38.5 °F 42.1 °F 86% 30.02 in 10.0 mi NNE 19.6 mph 31.1 mph 0.00 in Rain Light Rain
6:53 AM 45.0 °F 36.2 °F 42.1 °F 90% 30.04 in 10.0 mi NNE 24.2 mph 33.4 mph 0.00 in   Overcast
7:53 AM 44.1 °F 35.2 °F 42.1 °F 93% 30.05 in 10.0 mi NNE 23.0 mph 32.2 mph 0.00 in Rain Light Rain
8:53 AM 43.0 °F 33.5 °F 41.0 °F 93% 30.05 in 6.0 mi NNE 24.2 mph 32.2 mph 0.05 in Rain Light Rain
9:53 AM 42.1 °F 32.6 °F 39.9 °F 92% 30.04 in 4.0 mi NNE 23.0 mph 38.0 mph 0.04 in Rain Light Rain
10:53 AM 42.1 °F 31.7 °F 39.9 °F 92% 30.01 in 7.0 mi NNE 27.6 mph 35.7 mph 0.00 in Rain Light Rain
11:53 AM 42.1 °F 32.8 °F 39.9 °F 92% 30.01 in 10.0 mi NE 21.9 mph 34.5 mph 0.01 in   Overcast
12:53 PM 42.1 °F 32.3 °F 41.0 °F 96% 29.99 in 8.0 mi NNE 24.2 mph 33.4 mph 0.05 in Rain Light Rain
1:53 PM 43.0 °F 34.2 °F 41.0 °F 93% 29.98 in 6.0 mi NE 20.7 mph 32.2 mph 0.00 in   Overcast
2:14 PM 42.8 °F 33.8 °F 41.0 °F 93% 29.94 in 2.5 mi NNE 21.9 mph 33.4 mph N/A   Overcast
2:24 PM 42.8 °F 33.5 °F 41.0 °F 93% 29.94 in 3.0 mi NNE 23.0 mph 31.1 mph N/A   Overcast
2:53 PM 42.1 °F 32.6 °F 41.0 °F 96% 29.94 in 2.0 mi NE 23.0 mph 34.5 mph 0.04 in Rain Heavy Rain
3:10 PM 42.8 °F 33.3 °F 41.0 °F 93% 29.92 in 4.0 mi NNE 24.2 mph 35.7 mph 0.03 in Rain Light Rain
3:53 PM 42.1 °F 31.7 °F 41.0 °F 96% 29.93 in 7.0 mi NNE 27.6 mph 40.3 mph 0.04 in   Overcast
4:53 PM 43.0 °F 33.5 °F 41.0 °F 93% 29.92 in 10.0 mi NNE 24.2 mph 35.7 mph N/A   Overcast
5:53 PM 42.1 °F 31.7 °F 39.9 °F 92% 29.91 in 10.0 mi NNE 27.6 mph 40.3 mph 0.00 in Rain Light Rain
6:24 PM 41.0 °F 30.5 °F 39.2 °F 93% 29.88 in 2.5 mi NNE 26.5 mph 40.3 mph 0.03 in Rain Rain
6:31 PM 41.0 °F 30.2 °F 39.2 °F 93% 29.87 in 5.0 mi NNE 27.6 mph 41.4 mph 0.03 in Rain Light Rain
6:53 PM 41.0 °F 31.1 °F 39.9 °F 96% 29.89 in 5.0 mi NNE 23.0 mph 36.8 mph 0.04 in Rain Rain
7:53 PM 39.9 °F 28.6 °F 37.9 °F 93% 29.85 in 10.0 mi NNE 28.8 mph 38.0 mph 0.10 in Rain Light Rain
8:53 PM 39.9 °F 28.2 °F 39.0 °F 97% 29.86 in 6.0 mi NNE 31.1 mph 42.6 mph 0.02 in Rain , Thunderstorm Light Rain
9:13 PM 39.2 °F 28.5 °F 39.2 °F 100% 29.84 in 2.5 mi NNE 24.2 mph 34.5 mph 0.09 in Rain Rain
9:20 PM 39.2 °F 27.2 °F 39.2 °F 100% 29.85 in 4.0 mi NNE 31.1 mph 36.8 mph 0.11 in Rain Rain
9:38 PM 39.2 °F 27.8 °F 39.2 °F 100% 29.82 in 1.8 mi NNE 27.6 mph 36.8 mph 0.21 in Rain Heavy Rain
9:46 PM 39.2 °F 27.4 °F 39.2 °F 100% 29.82 in 3.0 mi NNE 29.9 mph 42.6 mph 0.24 in Rain Rain
9:53 PM 39.9 °F 28.0 °F 39.0 °F 97% 29.84 in 5.0 mi NNE 32.2 mph 42.6 mph 0.25 in Rain Rain
10:53 PM 41.0 °F 29.8 °F 39.9 °F 96% 29.82 in 10.0 mi NNE 29.9 mph 42.6 mph 0.06 in   Overcast
11:53 PM 42.1 °F 31.7 °F 39.9 °F 92% 29.78 in 10.0 mi NNE 27.6 mph 38.0 mph 0.01 in   Overcast